Regional Weather Roundup
Issued by NWS

Home | Current Version | Previous Version | Text Only | Print | Product List | Glossary On
Versions: 1 2 3 4 5 6 7 8 9 10 11 12 13 14 15 16 17 18 19 20 21 22 23 24 25 26 27 28 29 30 31 32 33 34 35 36 37 38 39 40 41 42 43 44 45 46 47 48 49 50
000
ASUS44 KFWD 280910
RWRTX
NORTH TEXAS HOURLY WEATHER ROUNDUP
NATIONAL WEATHER SERVICE FORT WORTH TX
300 AM CST SUN DEC 28 2014

NOTE: "FAIR" INDICATES FEW OR NO CLOUDS BELOW 12,000 FEET WITH NO
SIGNIFICANT WEATHER AND/OR OBSTRUCTIONS TO VISIBILITY.

TXZ118-119-281000-
DALLAS/FORT WORTH METROPLEX

CITY           SKY/WX    TMP DP  RH WIND       PRES   REMARKS
DFW AIRPORT    CLOUDY    35  24  64 NW12      30.26F WCI  27
DALLAS LOVE    CLOUDY    36  24  62 N12       30.26F WCI  28
FTW MEACHAM    CLOUDY    35  25  66 NW10      30.28F WCI  27
DAL-EXECUTIVE  CLOUDY    37  23  56 N9        30.25S WCI  30
FTW-ALLIANCE   CLOUDY    34  23  64 NW9       30.28S WCI  27
FTW-SPINKS     CLOUDY    36  24  62 NW10      30.29S WCI  28
ARLINGTON      CLOUDY    37  23  56 NW12      30.27S WCI  29
GRAND PRAIRIE  CLOUDY    36  27  72 NW6       30.28F WCI  31
ADDISON        CLOUDY    35  26  68 N10       30.27F WCI  28
MESQUITE       CLOUDY    35  27  71 NW12      30.26R WCI  27
LANCASTER      CLOUDY    35  24  63 N10       30.27R WCI  28
$$

TXZ091>094-102>105-117-120-121-131>134-281000-
NORTH CENTRAL TEXAS

CITY           SKY/WX    TMP DP  RH WIND       PRES   REMARKS
SHRMAN/DENISON CLOUDY    34  27  75 N8        30.27F WCI  27
GAINESVILLE    CLOUDY    31  24  74 W7        30.31R WCI  24
BOWIE          CLOUDY    29  25  83 NW3       30.30R
BRIDGEPORT     CLOUDY    34  26  74 N7        30.32S WCI  28
DECATUR        CLOUDY    31  23  73 NW5       30.28S WCI  26
DENTON         CLOUDY    33  23  66 NW8       30.28S WCI  26
MCKINNEY       CLOUDY    34  26  72 NW8       30.25F WCI  27
GREENVILLE     CLOUDY    34  28  80 N9        30.22F WCI  26
ROCKWALL       CLOUDY    35  26  68 N12       30.23F WCI  27
TERRELL        CLOUDY    37  26  64 N9        30.25F WCI  30
WAXAHACHIE     CLOUDY    35  28  78 NW10G16   30.27R WCI  27
CLEBURNE       CLOUDY    34  27  75 NW9       30.28R WCI  26
GRANBURY       CLOUDY    35  28  75 NW8       30.30F WCI  29
$$

TXZ083>090-098>101-113>116-127>130-139>142-154-155-281000-
WESTERN NORTH TEXAS

CITY           SKY/WX    TMP DP  RH WIND       PRES   REMARKS
WICHITA FALLS  PTCLDY    27  22  81 W6        30.30S WCI  20
WF-KICKAPOO    PTCLDY    29  24  81 W3        30.32R
VERNON         CLOUDY    29  21  73 W6        30.31S WCI  23
ABILENE        CLOUDY    33  27  78 CALM      30.28F
ABILENE-DYESS  CLOUDY    33  28  82 NW3       30.27F
BRECKENRIDGE   CLOUDY    34  28  79 CALM      30.30F
GRAHAM         CLOUDY    31  28  88 NW3       30.29F
MINERAL WELLS  CLOUDY    32  26  78 W6        30.29R WCI  26
STEPHENVILLE   CLOUDY    33  25  70 NW9       30.29F WCI  26
COMANCHE       CLOUDY    32  27  83 NW8       30.28F WCI  25
COLEMAN        MOCLDY    32  28  86 NW8       30.27F WCI  25
BRADY          CLOUDY    34  28  80 NW8       30.25R WCI  27
$$

TXZ143>147-156>162-174-175-281000-
CENTRAL TEXAS

CITY           SKY/WX    TMP DP  RH WIND       PRES   REMARKS
WACO           CLOUDY    37  25  61 N14       30.28R WCI  28
WACO-MCGREGOR  CLOUDY    37  23  56 N8        30.28R WCI  31
HILLSBORO      CLOUDY    36  27  69 N10       30.26R WCI  28
CORSICANA      CLOUDY    37  26  64 N10       30.25R WCI  30
MEXIA          CLOUDY    36  27  71 N12       30.25R WCI  28
HEARNE         LGT RAIN  39  31  74 NW9       30.29R WCI  32
CAMERON        CLOUDY    38  29  70 N12       30.26S WCI  31
TEMPLE         CLOUDY    37  21  52 N15G21    30.26R WCI  28
KILLEEN        CLOUDY    36  24  63 N17       30.26R WCI  25
KILLEEN-SKYLRK CLOUDY    37  19  48 N14       30.25R WCI  29
FORT HOOD      CLOUDY    36  24  62 N15       30.26R WCI  27
GATESVILLE     CLOUDY    36  27  69 N12       30.29R WCI  27
HAMILTON       CLOUDY    35  25  68 N15       30.27S WCI  25
LAMPASAS       CLOUDY    35  26  69 N10       30.25R WCI  27
$$

TXZ095>097-106>112-122>126-135>138-148>153-164>167-281000-
EAST TEXAS

CITY           SKY/WX    TMP DP  RH WIND       PRES   REMARKS
PARIS          CLOUDY    34  27  75 N12       30.23F WCI  25
SULPHUR SPRNGS CLOUDY    36  30  79 N14       30.23F WCI  27
MOUNT PLEASANT CLOUDY    36  30  81 NW10      30.22F WCI  28
GILMER         CLOUDY    35  30  83 NW7       30.19F WCI  29
MINEOLA        CLOUDY    36  30  80 N8        30.22S WCI  29
TYLER          CLOUDY    37  28  70 N12       30.19F WCI  29
LONGVIEW       CLOUDY    38  33  82 N9        30.19F WCI  31
MARSHALL       CLOUDY    39  37  89 N7        30.21F WCI  34
ATHENS         CLOUDY    34  28  80 NE8       30.21R WCI  27
PALESTINE      CLOUDY    37  33  84 NW7       30.24R WCI  32
JACKSONVILLE   CLOUDY    37  35  90 NW7       30.21R WCI  32
HENDERSON      DRIZZLE   37  35  91 NW3       30.21R
NACOGDOCHES      N/A    N/A N/A N/A MISG        N/A
LUFKIN         LGT RAIN  42  37  82 N9        30.18R WCI  37
$$

SUPPLEMENTAL OBSERVATIONS (CENTRAL)

CITY           SKY/WX    TMP DP  RH WIND       PRES   REMARKS
PAT MAYSE LAKE   N/A     32  30  93 NW8         N/A  WCI  25
MCGREGOR         N/A     36  25  64 VRB7G15     N/A  WCI  30
TEMPLE           N/A     37  27  65 N1G15       N/A
$$

SUPPLEMENTAL OBSERVATIONS (WEST)

CITY           SKY/WX    TMP DP  RH WIND       PRES   REMARKS
MILLERS CREEK    N/A     30  25  80 N3          N/A
GRANBURY         N/A     34  27  75 NW10        N/A  WCI  26
HAMBY            N/A     32  30  93 CALM        N/A
IVIE RESERVOIR   N/A     34  28  80 NW7         N/A  WCI  28
COLORADO BEND    N/A     34  25  69 N6G15       N/A  WCI  29
$$

SUPPLEMENTAL OBSERVATIONS (EAST)

CITY           SKY/WX    TMP DP  RH WIND       PRES   REMARKS
CLARKSVILLE      N/A     34  30  86 N10         N/A  WCI  26
TEXARKANA        N/A     39  36  87 N5          N/A  WCI  36
LINDEN           N/A     37  34  87 N2          N/A
GILMER           N/A     36  30  80 N6G17       N/A  WCI  31
HENDERSON        N/A     37  34  87 N9          N/A  WCI  31
LUFKIN           N/A     39  34  81 MISG        N/A
N SABINE NF      N/A     41  37  87 MISG        N/A
S SABINE NF      N/A     45  41  87 NW3G12      N/A
$$

SUPPLEMENTAL OBSERVATIONS ARE A COLLECTION OF AUTOMATED INSTRUMENTS
THAT ARE MAINTAINED BY A VARIETY OF FEDERAL AND STATE AGENCIES.
CERTAIN ELEMENTS...SUCH AS HUMIDITY VALUES AND SUSTAINED WIND
SPEEDS...MAY BE APPROXIMATED.




USA.gov is the U.S. government's official web portal to all federal, state and local government web resources and services.